NOAA 16 DEB

Satellite information

Favourite Embed

Satellite Type and Status

DEBRISIN ORBIT

Key statistics

Satellite NOAA 16 DEB at a glance.

Uptime

9113

Days in orbit

Revolutions

≈ 14.6

Per day

Orbit

SSO

Sun Synchronous Orbit

Inclination

98.8

Latest

Satellite identification and parameters

Extended collection of information and parameters for NOAA 16 DEB.

Object identification

Identified? True

Debris? True

Object name: NOAA 16 DEB

International designator: 2000-055QD

Object number (NORAD): 42337

Object ID (CCSDS): 42337

Country: UNITED STATES OF AMERICA (US)

Current information (Y/N): Y

RCS size: SMALL

Orbital parameters

Period: 98.427 minutes

Inclination: 98.7988 deg

SMA: 7061.611 km

Apoapsis: 711.468 km

Periapsis: 655.483 km

RAAN: 38.6098 deg

Eccentricy: 0.00396406

Argument of periapsis: 141.0173 deg

Mean anomaly: 219.3897 deg

Mean motion: 14.63009317 rev/day

Mean motion (dot): 0.0003943 rev/day2

B* drag term: 0.0075726708 1/REarth

Two-line elements (TLE)

Creation date: Sept. 3, 2025, 2:21 a.m.

Reference frame: TEME

Reference center: EARTH

Epoch: Sept. 2, 2025, 4:18 p.m. UTC

TLE line 0: 0 NOAA 16 DEB

TLE line 1: 1 42337U 00055QD 25245.67974861 .00039430 00000-0 75727-2 0 9994

TLE line 2: 2 42337 98.7988 38.6098 0039641 141.0173 219.3897 14.63009317499942

Live tracking on map

Real-time ground track for satellite NOAA 16 DEB.

In-orbit conjunctions

A list of the most updated potential collisions computed for object NOAA 16 DEB.

Target Orbit TCA Probability of collision Miss distance Type
TRIAD 1 SSO 2025-07-03 13:57:55 0.0001396567 930.0 (m) PAYLOAD
CZ-6A DEB LEO 2025-01-23 23:41:44 0.0002977109 455.0 (m) DEBRIS
TIROS 4 LEO 2024-11-09 08:51:03 0.0007846509 488.0 (m) PAYLOAD
COSMOS 2251 DEB LEO 2024-09-02 13:30:03 0.0001493271 108.0 (m) DEBRIS

Associated space launch

The NOAA K, L and M POES satellites begin the fifth generation of improved environmental monitoring in support of NOAA missions. The instrument payload has significant improvements and additions/deletions. The instrument changes have effected the spacecraft subsystems and data formats.

NOAA 16 DEB was lifted into orbit during the mission ‘Titan II SLV | NOAA 16’, on board a Titan II SLV space rocket.

The launch took place on Sept. 21, 2000, 10:22 a.m. from Space Launch Complex 4W.

For more information about the launch, click the button.

Launch to space Titan II SLV | NOAA 16
Titan II SLV | NOAA 16

Agency: N/A

Status: Launch Successful

Launch date: Sept. 21, 2000, 10:22 a.m. UTC

Rocket: Titan II SLV

Launch pad: Space Launch Complex 4W

Location: Vandenberg SFB, CA, USA

...

Latest news about this satellite

There are no fresh news available about this satellite. Check back as we update our databases every day.


Newsletter sign-up

Weekly statistics, charts and insights to help you stay on top of the space industry.